Weather History for Canberra, CT

Change the Weather History Date:

Saturday, August 17, 2013

  Actual Average Record
Temperature  
Mean Temperature 46 °F -  
Max Temperature 59 °F 58 °F - ()
Min Temperature 34 °F 36 °F - ()
Degree Days  
Heating Degree Days 18    
Moisture  
Dew Point 38 °F    
Average Humidity 69    
Maximum Humidity 100    
Minimum Humidity 31    
Precipitation  
Precipitation 0.00 in 0.07 in - ()
Sea Level Pressure  
Sea Level Pressure 29.85 in    
Wind  
Wind Speed 11 mph ()    
Max Wind Speed 23 mph    
Max Gust Speed 36 mph    
Visibility 6.2 miles    
Events Rain    
T = Trace of Precipitation, MM = Missing Value Source: Averaged Metar Reports

Daily Weather History Graph

Daily Weather History Graph

Search for Another Location

Airport:

Trip Planner

Search our weather history database for the weather conditions in past years. The results will help you decide how hot, cold, wet, or windy it might be!

Date:

Astronomy

Aug. 17, 2013 Rise Set
Actual Time 6:42 AM AEST 5:32 PM AEST
Civil Twilight 6:16 AM AEST 5:58 PM AEST
Nautical Twilight 5:46 AM AEST 6:28 PM AEST
Astronomical Twilight 5:16 AM AEST 6:58 PM AEST
Moon 1:23 PM AEST (8/17) 2:53 AM AEST (8/17)
Length of Visible Light 11h 42m
Length of Day
10h 50m
Waxing Gibbous, 79% of the Moon is Illuminated
Aug 17
Waxing Gibbous
Aug 21
Full
Aug 28
Last Quarter
Sep 5
New
Sep 13
First Quarter

Hourly Weather History & Observations

Time (AEST) Temp. Windchill Dew Point Humidity Pressure Visibility Wind Dir Wind Speed Gust Speed Precip Events Conditions
12:00 AM 38 °F - 33 °F 77% 29.88 in - SSE 2.3 mph - -   Overcast
12:00 AM 37.4 °F - 33.8 °F 87% 29.83 in 6.2 mi SSE 2.3 mph - N/A   Scattered Clouds
12:22 AM 48.2 °F - 35.6 °F 62% 29.86 in 6.2 mi WNW 15.0 mph - N/A   Scattered Clouds
12:28 AM 50.0 °F - 33.8 °F 54% 29.86 in 6.2 mi NW 17.3 mph 32.2 mph N/A   Scattered Clouds
12:30 AM 50.0 °F - 33.8 °F 54% 29.86 in 6.2 mi NW 19.6 mph 32.2 mph N/A   Mostly Cloudy
1:00 AM 46 °F - 39 °F 70% 29.87 in - NW 17.3 mph - -  
1:00 AM 46.4 °F 39.5 °F 39.2 °F 76% 29.83 in 6.2 mi NW 17.3 mph - N/A Rain Rain
1:30 AM 44.6 °F 37.4 °F 39.2 °F 81% 29.86 in 6.2 mi NNW 16.1 mph - N/A Rain Light Rain Showers
2:00 AM 44.6 °F 38.1 °F 41.0 °F 87% 29.86 in 6.2 mi NW 13.8 mph - N/A Rain Light Rain Showers
2:30 AM 42.8 °F 38.0 °F 41.0 °F 93% 29.86 in 6.2 mi WNW 8.1 mph - N/A Rain Rain
3:00 AM 43 °F - 42 °F 93% 29.87 in - NNW 6.9 mph - -   Overcast
3:00 AM 42.8 °F 38.6 °F 41.0 °F 93% 29.83 in 6.2 mi NNW 6.9 mph - N/A Rain Light Rain
3:30 AM 42.8 °F 39.3 °F 42.8 °F 100% 29.83 in 6.2 mi NNW 5.8 mph - N/A   Drizzle
4:00 AM 42.8 °F 41.1 °F 41.0 °F 93% 29.83 in 6.2 mi WSW 3.5 mph - N/A Rain Light Rain Showers
4:30 AM 42.8 °F 39.3 °F 41.0 °F 93% 29.80 in 6.2 mi West 5.8 mph - N/A Rain Light Rain Showers
5:00 AM 42.8 °F 38.6 °F 41.0 °F 93% 29.80 in 6.2 mi NW 6.9 mph - N/A Rain Light Rain Showers
5:30 AM 41.0 °F 36.4 °F 41.0 °F 100% 29.80 in 6.2 mi NW 6.9 mph - N/A Rain Light Rain Showers
6:00 AM 37.4 °F 32.8 °F 37.4 °F 100% 29.80 in 6.2 mi SSE 5.8 mph - N/A   Partly Cloudy
6:30 AM 39.2 °F 34.2 °F 39.2 °F 100% 29.80 in 6.2 mi East 6.9 mph - N/A   Scattered Clouds
7:00 AM 42 °F - 42 °F 99% 29.83 in - North 6.9 mph - -  
7:00 AM 42.8 °F 38.6 °F 41.0 °F 93% 29.80 in 6.2 mi North 6.9 mph - N/A   Mostly Cloudy
7:30 AM 44.6 °F 43.1 °F 44.6 °F 100% 29.80 in 6.2 mi NE 3.5 mph - N/A Rain Light Rain Showers
8:00 AM 46.4 °F - 44.6 °F 93% 29.80 in 6.2 mi East 2.3 mph - N/A   Scattered Clouds
8:30 AM 46.4 °F 44.3 °F 46.4 °F 100% 29.80 in 6.2 mi South 4.6 mph - N/A   Scattered Clouds
9:00 AM 48 °F - 45 °F 85% 29.84 in - SSW 2.3 mph - -   Overcast
9:00 AM 48.2 °F - 44.6 °F 87% 29.80 in 6.2 mi SSW 2.3 mph - N/A   Scattered Clouds
9:30 AM 50.0 °F - 44.6 °F 82% 29.80 in 6.2 mi NW 10.4 mph - N/A   Scattered Clouds
10:00 AM 53 °F - 47 °F 73% 29.84 in - NNW 11.5 mph - -  
10:00 AM 53.6 °F - 46.4 °F 77% 29.80 in 6.2 mi NNW 11.5 mph - N/A   Scattered Clouds
10:30 AM 55.4 °F - 46.4 °F 72% 29.80 in 6.2 mi NNW 13.8 mph - N/A   Scattered Clouds
11:00 AM 55.4 °F - 44.6 °F 67% 29.80 in 6.2 mi NW 16.1 mph - N/A   Scattered Clouds
11:30 AM 57.2 °F - 42.8 °F 59% 29.80 in 6.2 mi NW 13.8 mph - N/A   Scattered Clouds
12:00 PM 58 °F - 44 °F 49% 29.83 in - NNW 16.1 mph - -   Overcast
12:00 PM 57.2 °F - 44.6 °F 63% 29.80 in 6.2 mi NNW 16.1 mph - N/A   Scattered Clouds
12:30 PM 59.0 °F - 42.8 °F 55% 29.80 in 6.2 mi NW 19.6 mph - N/A   Scattered Clouds
1:00 PM 56 °F - 36 °F 35% 29.81 in - WNW 16.1 mph - -  
1:00 PM 57.2 °F - 35.6 °F 44% 29.77 in 6.2 mi WNW 16.1 mph - N/A   Scattered Clouds
1:30 PM 59.0 °F - 33.8 °F 39% 29.77 in 6.2 mi West 18.4 mph - N/A   Partly Cloudy
2:00 PM 59.0 °F - 35.6 °F 42% 29.77 in 6.2 mi WNW 18.4 mph - N/A   Partly Cloudy
2:13 PM 59.0 °F - 32.0 °F 36% 29.80 in 6.2 mi WNW 18.4 mph 32.2 mph N/A   Partly Cloudy
2:30 PM 59.0 °F - 32.0 °F 36% 29.80 in 6.2 mi WNW 20.7 mph - N/A   Partly Cloudy
3:00 PM 57 °F - 35 °F 31% 29.83 in - WNW 17.3 mph - -   Overcast
3:00 PM 57.2 °F - 33.8 °F 41% 29.80 in 6.2 mi WNW 17.3 mph - N/A   Partly Cloudy
3:30 PM 57.2 °F - 33.8 °F 41% 29.80 in 6.2 mi WNW 20.7 mph - N/A   Partly Cloudy
3:51 PM 55.4 °F - 33.8 °F 44% 29.80 in 6.2 mi WNW 21.9 mph 34.5 mph N/A   Partly Cloudy
4:00 PM 54 °F - 33 °F 33% 29.84 in - WNW 23.0 mph - -  
4:00 PM 55.4 °F - 33.8 °F 44% 29.80 in 6.2 mi WNW 23.0 mph 35.7 mph N/A   Partly Cloudy
4:37 PM 53.6 °F - 35.6 °F 51% 29.83 in 6.2 mi WNW 17.3 mph 28.8 mph N/A   Partly Cloudy
5:00 PM 51.8 °F - 33.8 °F 50% 29.86 in 6.2 mi WNW 12.7 mph - N/A   Partly Cloudy
5:30 PM 50.0 °F - 33.8 °F 54% 29.86 in 6.2 mi WNW 13.8 mph - N/A   Partly Cloudy
6:00 PM 48 °F - 34 °F 47% 29.92 in - NW 12.7 mph - -  
6:00 PM 48.2 °F - 33.8 °F 58% 29.89 in 6.2 mi NW 12.7 mph 24.2 mph N/A   Partly Cloudy
6:30 PM 46.4 °F 40.4 °F 33.8 °F 62% 29.89 in 6.2 mi NW 13.8 mph - N/A   Unknown
7:00 PM 47 °F - 36 °F 54% 29.94 in - NW 15.0 mph - -  
7:00 PM 46.4 °F 40.1 °F 35.6 °F 66% 29.89 in 6.2 mi NW 15.0 mph - N/A   Unknown
7:30 PM 46.4 °F 39.2 °F 37.4 °F 71% 29.92 in 6.2 mi NW 18.4 mph - N/A   Unknown
8:00 PM 46.4 °F 40.1 °F 37.4 °F 71% 29.92 in 6.2 mi NW 15.0 mph - N/A   Unknown
8:30 PM 46.4 °F 40.1 °F 37.4 °F 71% 29.95 in 6.2 mi NW 15.0 mph - N/A   Unknown
9:00 PM 44 °F - 36 °F 64% 29.98 in - NW 13.8 mph - -  
9:00 PM 44.6 °F 38.1 °F 35.6 °F 71% 29.95 in 6.2 mi NW 13.8 mph - N/A   Unknown
9:30 PM 44.6 °F 38.8 °F 37.4 °F 76% 29.95 in 6.2 mi NNW 11.5 mph - N/A   Unknown
10:00 PM 43 °F - 36 °F 70% 30.00 in - NNW 11.5 mph - -  
10:00 PM 42.8 °F 36.6 °F 37.4 °F 81% 29.95 in 6.2 mi NNW 11.5 mph - N/A   Unknown
10:30 PM 44.6 °F 38.8 °F 37.4 °F 76% 29.95 in 6.2 mi NNW 11.5 mph - N/A   Scattered Clouds
11:00 PM 44.6 °F 38.8 °F 37.4 °F 76% 29.95 in 6.2 mi NNW 11.5 mph - N/A   Unknown
11:30 PM 42.8 °F 36.6 °F 37.4 °F 81% 29.98 in 6.2 mi NNW 11.5 mph - N/A   Unknown